Regional Weather Roundup
Issued by NWS

Home | Current Version | Previous Version | Graphics & Text | Print | Product List | Glossary On
Versions: 1 2 3 4 5 6 7 8 9 10 11 12 13 14 15 16 17 18 19 20 21 22 23 24 25 26 27 28 29 30 31 32 33 34 35 36 37 38 39 40 41 42 43 44 45 46 47 48 49 50
000
ASUS45 KBOI 120010
RWRID
WEATHER ROUNDUP FOR IDAHO
NATIONAL WEATHER SERVICE BOISE ID
600 PM MDT FRI JUL 11 2014

NOTE: "FAIR" INDICATES FEW OR NO CLOUDS BELOW 12000 FEET
WITH NO SIGNIFICANT WEATHER AND/OR OBSTRUCTIONS TO VISIBILITY

IDZ012-014-120100-
SOUTHWEST IDAHO


CITY           SKY/WX    TMP DP  RH WIND       PRES   REMARKS
BOISE          PTSUNNY   98  38  12 W15       29.88F HX  93
CALDWELL       PTSUNNY   97  43  15 W13       29.89F HX  92
MOUNTAIN HOME  CLOUDY    98  44  15 NW20      29.88S HX  94
$$

IDZ016-017-120100-
SOUTHCENTRAL IDAHO


CITY           SKY/WX    TMP DP  RH WIND       PRES   REMARKS
BURLEY         PTSUNNY   82  56  40 S15G24    29.98S
JEROME         MOSUNNY   93  48  21 S8        29.96F
TWIN FALLS     MOSUNNY   95  34  11 S7        29.98F HX  90
$$

IDZ019>023-120100-
SOUTHEAST IDAHO


CITY           SKY/WX    TMP DP  RH WIND       PRES   REMARKS
IDAHO FALLS    MOSUNNY   91  47  21 S15       30.04S
POCATELLO      PTSUNNY   79  48  33 S23G30    30.05R
REXBURG        PTSUNNY   87  47  24 S9        30.05S
$$

IDZ006-010-011-018-031-032-120100-
CENTRAL IDAHO MOUNTAINS


CITY           SKY/WX    TMP DP  RH WIND       PRES   REMARKS
MCCALL         PTSUNNY   88  32  13 W10       30.07R
HAILEY         MOSUNNY   90  45  20 SE5       30.05
STANLEY          N/A     83  36  18 W8        30.15F
SALMON         MOSUNNY   91  39  16 N9        29.89F
CHALLIS        PTSUNNY   91  32  12 CALM      30.00F
$$

IDZ002-004-006-007-026-120100-
NORTHERN IDAHO


CITY           SKY/WX    TMP DP  RH WIND       PRES   REMARKS
LEWISTON       PTSUNNY   96  35  11 VRB5      29.88F HX  91
LOWELL           N/A     89  54  30 CALM      29.86S
COEUR D`ALENE  SUNNY     90  43  19 S3        29.95F
MULLAN PASS    SUNNY     75  39  27 N5        30.21S
$$


USA.gov is the U.S. government's official web portal to all federal, state and local government web resources and services.